TimeMST,TemperatureF,Dew PointF,Humidity,Sea Level PressureIn,VisibilityMPH,Wind Direction,Wind SpeedMPH,Gust SpeedMPH,PrecipitationIn,Events,Conditions,WindDirDegrees,DateUTC
12:15 AM,35.6,21.2,56,30.32,10.0,Calm,Calm,-,N/A,,Clear,0,2013-11-29 07:15:00
12:35 AM,35.6,23.0,60,30.32,10.0,West,4.6,-,N/A,,Clear,280,2013-11-29 07:35:00
12:55 AM,33.8,23.0,65,30.31,10.0,WNW,5.8,-,N/A,,Clear,300,2013-11-29 07:55:00
1:15 AM,33.8,23.0,65,30.31,10.0,WNW,4.6,-,N/A,,Clear,290,2013-11-29 08:15:00
1:35 AM,32.0,23.0,69,30.31,10.0,WSW,3.5,-,N/A,,Clear,250,2013-11-29 08:35:00
1:55 AM,35.6,23.0,60,30.31,10.0,Calm,Calm,-,N/A,,Clear,0,2013-11-29 08:55:00
2:15 AM,35.6,23.0,60,30.32,10.0,NW,3.5,-,N/A,,Clear,310,2013-11-29 09:15:00
2:35 AM,35.6,23.0,60,30.32,10.0,NNW,3.5,-,N/A,,Clear,330,2013-11-29 09:35:00
2:55 AM,32.0,23.0,69,30.32,10.0,West,3.5,-,N/A,,Clear,270,2013-11-29 09:55:00
3:15 AM,32.0,23.0,69,30.33,10.0,West,6.9,-,N/A,,Clear,260,2013-11-29 10:15:00
3:35 AM,35.6,23.0,60,30.32,10.0,WSW,3.5,-,N/A,,Clear,240,2013-11-29 10:35:00
3:55 AM,32.0,23.0,69,30.32,10.0,Calm,Calm,-,N/A,,Clear,0,2013-11-29 10:55:00
4:15 AM,33.8,23.0,65,30.32,10.0,SW,10.4,-,N/A,,Clear,230,2013-11-29 11:15:00
4:35 AM,35.6,23.0,60,30.32,10.0,Calm,Calm,-,N/A,,Clear,0,2013-11-29 11:35:00
4:55 AM,35.6,23.0,60,30.33,10.0,Calm,Calm,-,N/A,,Clear,0,2013-11-29 11:55:00
5:15 AM,33.8,23.0,65,30.32,10.0,Calm,Calm,-,N/A,,Clear,0,2013-11-29 12:15:00
5:35 AM,32.0,23.0,69,30.33,10.0,SW,5.8,-,N/A,,Clear,230,2013-11-29 12:35:00
5:55 AM,35.6,23.0,60,30.33,10.0,Calm,Calm,-,N/A,,Clear,0,2013-11-29 12:55:00
6:15 AM,35.6,23.0,60,30.34,10.0,West,3.5,-,N/A,,Clear,260,2013-11-29 13:15:00
6:35 AM,35.6,23.0,60,30.34,10.0,Calm,Calm,-,N/A,,Clear,0,2013-11-29 13:35:00
6:55 AM,33.8,23.0,65,30.35,10.0,West,3.5,-,N/A,,Clear,270,2013-11-29 13:55:00
7:15 AM,32.0,23.0,69,30.35,10.0,Calm,Calm,-,N/A,,Clear,0,2013-11-29 14:15:00
7:35 AM,37.4,26.6,65,30.36,10.0,Calm,Calm,-,N/A,,Clear,0,2013-11-29 14:35:00
7:55 AM,35.6,26.6,70,30.36,10.0,Calm,Calm,-,N/A,,Clear,0,2013-11-29 14:55:00
8:15 AM,37.4,26.6,65,30.37,10.0,Calm,Calm,-,N/A,,Clear,0,2013-11-29 15:15:00
8:35 AM,39.2,26.6,61,30.37,10.0,Calm,Calm,-,N/A,,Clear,0,2013-11-29 15:35:00
8:55 AM,41.0,26.6,57,30.38,10.0,NW,3.5,-,N/A,,Clear,310,2013-11-29 15:55:00
9:15 AM,41.0,26.6,57,30.38,10.0,North,3.5,-,N/A,,Clear,10,2013-11-29 16:15:00
9:35 AM,44.6,26.6,49,30.38,10.0,North,3.5,-,N/A,,Clear,10,2013-11-29 16:35:00
9:55 AM,46.4,26.6,46,30.38,10.0,WNW,3.5,-,N/A,,Clear,290,2013-11-29 16:55:00
10:15 AM,48.2,28.4,46,30.38,10.0,NW,3.5,-,N/A,,Clear,320,2013-11-29 17:15:00
10:35 AM,48.2,28.4,46,30.38,10.0,NNW,5.8,-,N/A,,Clear,330,2013-11-29 17:35:00
10:55 AM,50.0,26.6,40,30.38,10.0,NNW,3.5,-,N/A,,Clear,340,2013-11-29 17:55:00
11:15 AM,51.8,26.6,38,30.37,10.0,North,3.5,-,N/A,,Clear,350,2013-11-29 18:15:00
11:35 AM,53.6,26.6,35,30.36,10.0,North,4.6,-,N/A,,Clear,350,2013-11-29 18:35:00
11:55 AM,53.6,26.6,35,30.35,10.0,NNE,4.6,-,N/A,,Clear,30,2013-11-29 18:55:00
12:15 PM,53.6,26.6,35,30.34,10.0,ENE,3.5,-,N/A,,Clear,60,2013-11-29 19:15:00
12:35 PM,55.4,26.6,33,30.33,10.0,Calm,Calm,-,N/A,,Clear,0,2013-11-29 19:35:00
12:55 PM,55.4,26.6,33,30.32,10.0,North,8.1,-,N/A,,Clear,350,2013-11-29 19:55:00
1:15 PM,55.4,26.6,33,30.32,10.0,Calm,Calm,-,N/A,,Clear,0,2013-11-29 20:15:00
1:35 PM,57.2,26.6,31,30.31,10.0,North,4.6,-,N/A,,Clear,350,2013-11-29 20:35:00
1:55 PM,57.2,26.6,31,30.30,10.0,NNE,4.6,-,N/A,,Clear,20,2013-11-29 20:55:00
2:15 PM,57.2,26.6,31,30.30,10.0,Calm,Calm,-,N/A,,Clear,0,2013-11-29 21:15:00
2:35 PM,57.2,26.6,31,30.30,10.0,West,5.8,-,N/A,,Clear,270,2013-11-29 21:35:00
2:55 PM,57.2,24.8,29,30.30,10.0,South,5.8,-,N/A,,Clear,180,2013-11-29 21:55:00
3:15 PM,57.2,24.8,29,30.31,10.0,WSW,4.6,-,N/A,,Clear,250,2013-11-29 22:15:00
3:35 PM,55.4,26.6,33,30.30,10.0,North,4.6,-,N/A,,Clear,350,2013-11-29 22:35:00
3:55 PM,53.6,26.6,35,30.30,10.0,North,5.8,-,N/A,,Clear,360,2013-11-29 22:55:00
4:15 PM,51.8,26.6,38,30.31,10.0,NNW,4.6,-,N/A,,Clear,330,2013-11-29 23:15:00
4:35 PM,50.0,26.6,40,30.31,10.0,Calm,Calm,-,N/A,,Clear,0,2013-11-29 23:35:00
4:55 PM,48.2,28.4,46,30.31,10.0,WNW,3.5,-,N/A,,Clear,300,2013-11-29 23:55:00
5:15 PM,48.2,28.4,46,30.32,10.0,Calm,Calm,-,N/A,,Clear,0,2013-11-30 00:15:00
5:35 PM,44.6,28.4,53,30.32,10.0,ESE,3.5,-,N/A,,Clear,120,2013-11-30 00:35:00
5:55 PM,44.6,28.4,53,30.32,10.0,Calm,Calm,-,N/A,,Clear,0,2013-11-30 00:55:00
6:15 PM,44.6,28.4,53,30.33,10.0,WNW,3.5,-,N/A,,Clear,300,2013-11-30 01:15:00
6:35 PM,42.8,28.4,57,30.34,10.0,West,5.8,-,N/A,,Clear,260,2013-11-30 01:35:00
6:55 PM,41.0,28.4,61,30.34,10.0,West,8.1,-,N/A,,Clear,260,2013-11-30 01:55:00
7:15 PM,41.0,28.4,61,30.34,10.0,West,5.8,-,N/A,,Clear,260,2013-11-30 02:15:00
7:35 PM,42.8,28.4,57,30.34,10.0,Calm,Calm,-,N/A,,Clear,0,2013-11-30 02:35:00
7:55 PM,41.0,28.4,61,30.34,10.0,Calm,Calm,-,N/A,,Clear,0,2013-11-30 02:55:00
8:15 PM,37.4,28.4,70,30.34,10.0,SW,4.6,-,N/A,,Clear,220,2013-11-30 03:15:00
8:35 PM,39.2,28.4,65,30.34,10.0,SW,3.5,-,N/A,,Clear,230,2013-11-30 03:35:00
8:55 PM,37.4,26.6,65,30.35,10.0,West,6.9,-,N/A,,Clear,260,2013-11-30 03:55:00
9:15 PM,39.2,26.6,61,30.35,10.0,West,4.6,-,N/A,,Clear,260,2013-11-30 04:15:00
9:35 PM,37.4,26.6,65,30.35,10.0,West,8.1,-,N/A,,Clear,270,2013-11-30 04:35:00
9:55 PM,37.4,26.6,65,30.35,10.0,SW,6.9,-,N/A,,Clear,220,2013-11-30 04:55:00
10:15 PM,37.4,24.8,60,30.35,10.0,WSW,4.6,-,N/A,,Clear,240,2013-11-30 05:15:00
10:35 PM,37.4,24.8,60,30.35,10.0,WNW,6.9,-,N/A,,Clear,290,2013-11-30 05:35:00
10:55 PM,37.4,24.8,60,30.35,10.0,WNW,6.9,-,N/A,,Clear,290,2013-11-30 05:55:00
11:15 PM,37.4,24.8,60,30.34,10.0,WNW,5.8,-,N/A,,Clear,290,2013-11-30 06:15:00
11:35 PM,39.2,26.6,61,30.34,10.0,WNW,4.6,-,N/A,,Clear,300,2013-11-30 06:35:00
11:55 PM,39.2,24.8,56,30.34,10.0,WNW,3.5,-,N/A,,Clear,290,2013-11-30 06:55:00